Weather History for Port Angeles, WA

Change the Weather History Date:

Monday, July 1, 2013

  Actual Average Record
Temperature  
Mean Temperature 64 °F -  
Max Temperature 73 °F 66 °F 82 °F (2014)
Min Temperature 57 °F 49 °F 42 °F (1985)
Growing Degree Days 14 (Base 50)    
Moisture  
Dew Point 58 °F    
Average Humidity 88    
Maximum Humidity 100    
Minimum Humidity 61    
Precipitation  
Precipitation 0.00 in - - ()
Sea Level Pressure  
Sea Level Pressure 29.98 in    
Wind  
Wind Speed 8 mph (NW)    
Max Wind Speed 14 mph    
Max Gust Speed 21 mph    
Visibility 7 miles    
Events Fog    
Averages and records for this station are not official NWS values.
T = Trace of Precipitation, MM = Missing Value Source: NWS Daily Summary

Daily Weather History Graph

Daily Weather History Graph

Search for Another Location

Airport:

Trip Planner

Search our weather history database for the weather conditions in past years. The results will help you decide how hot, cold, wet, or windy it might be!

Date:

Astronomy

Jul. 01, 2013 Rise Set
Actual Time 5:18 AM PDT 9:17 PM PDT
Civil Twilight 4:37 AM PDT 9:58 PM PDT
Nautical Twilight 3:40 AM PDT 10:55 PM PDT
Astronomical Twilight 2:05 AM PDT 12:28 AM PDT
Moon 1:09 AM PDT (7/1) 3:23 PM PDT (7/1)
Length of Visible Light 17h 21m
Length of Day
15h 59m
Waning Crescent, 34% of the Moon is Illuminated
Jul 1
Waning Crescent
Jul 8
New
Jul 15
First Quarter
Jul 22
Full
Jul 29
Last Quarter

Hourly Weather History & Observations

Time (PDT) Temp. Dew Point Humidity Pressure Visibility Wind Dir Wind Speed Gust Speed Precip Events Conditions
12:53 AM 64.9 °F 57.0 °F 75% 29.93 in 10.0 mi NW 3.5 mph - N/A   Clear
1:53 AM 62.1 °F 57.0 °F 84% 29.94 in 10.0 mi WNW 6.9 mph - N/A   Clear
2:53 AM 61.0 °F 57.0 °F 87% 29.94 in 10.0 mi WNW 8.1 mph - N/A   Clear
3:53 AM 59.0 °F 57.0 °F 93% 29.95 in 10.0 mi WNW 8.1 mph - N/A   Clear
4:53 AM 57.9 °F 57.0 °F 97% 29.95 in 4.0 mi NW 5.8 mph - N/A   Clear
5:50 AM 57.2 °F 57.2 °F 100% 29.97 in 2.0 mi NW 10.4 mph - N/A   Scattered Clouds
5:51 AM 57.2 °F 57.2 °F 100% 29.97 in 1.2 mi NW 11.5 mph - N/A   Scattered Clouds
5:53 AM 57.9 °F 57.0 °F 97% 29.97 in 0.8 mi NW 10.4 mph - N/A   Mist
6:02 AM 57.9 °F 57.0 °F 97% 29.97 in 0.2 mi NW 10.4 mph - N/A Fog Fog
6:11 AM 57.9 °F 57.0 °F 97% 29.98 in 0.5 mi NW 6.9 mph - N/A Fog Fog
6:18 AM 57.9 °F 57.0 °F 97% 29.98 in 0.2 mi WNW 9.2 mph - N/A Fog Fog
6:25 AM 57.9 °F 57.0 °F 97% 29.98 in 1.0 mi WNW 6.9 mph - N/A   Overcast
6:32 AM 57.9 °F 57.0 °F 97% 29.98 in 3.0 mi WNW 6.9 mph - N/A   Overcast
6:53 AM 59.0 °F 57.9 °F 96% 29.98 in 8.0 mi WNW 5.8 mph - N/A   Overcast
7:17 AM 59.0 °F 57.9 °F 96% 29.98 in 1.8 mi NW 8.1 mph - N/A   Overcast
7:30 AM 59.0 °F 57.9 °F 96% 29.99 in 0.2 mi NW 6.9 mph - N/A Fog Fog
7:40 AM 59.0 °F 57.9 °F 96% 29.99 in 0.8 mi WNW 10.4 mph - N/A   Overcast
7:53 AM 59.0 °F 57.9 °F 96% 29.99 in 0.5 mi WNW 6.9 mph - N/A Fog Fog
8:41 AM 60.1 °F 57.9 °F 93% 29.98 in 1.0 mi WNW 8.1 mph - N/A   Mist
8:51 AM 60.8 °F 57.2 °F 88% 29.98 in 3.0 mi NW 4.6 mph - N/A   Overcast
8:53 AM 60.1 °F 57.9 °F 93% 29.98 in 4.0 mi NW 5.8 mph - N/A   Overcast
9:53 AM 62.1 °F 59.0 °F 90% 29.98 in 10.0 mi NW 10.4 mph - N/A   Mostly Cloudy
10:12 AM 63.0 °F 59.0 °F 87% 29.98 in 10.0 mi WNW 6.9 mph - N/A   Partly Cloudy
10:53 AM 66.0 °F 59.0 °F 78% 29.97 in 10.0 mi Variable 5.8 mph - N/A   Clear
11:53 AM 64.9 °F 59.0 °F 81% 29.97 in 10.0 mi NNW 8.1 mph - N/A   Clear
12:53 PM 66.0 °F 59.0 °F 78% 29.98 in 10.0 mi NNW 10.4 mph - N/A   Clear
1:53 PM 69.1 °F 60.1 °F 73% 29.98 in 10.0 mi NW 9.2 mph - N/A   Clear
2:53 PM 70.0 °F 60.1 °F 71% 29.98 in 10.0 mi NW 11.5 mph 20.7 mph N/A   Clear
3:53 PM 71.1 °F 60.1 °F 68% 29.98 in 10.0 mi NNW 5.8 mph - N/A   Clear
4:53 PM 72.0 °F 57.9 °F 61% 29.99 in 10.0 mi WNW 13.8 mph - N/A   Clear
5:53 PM 66.9 °F 57.9 °F 73% 29.99 in 10.0 mi NW 10.4 mph - N/A   Clear
6:53 PM 66.0 °F 57.9 °F 75% 29.99 in 10.0 mi WNW 10.4 mph - N/A   Clear
7:53 PM 62.1 °F 57.0 °F 84% 30.00 in 10.0 mi NW 8.1 mph - N/A   Clear
8:39 PM 61.0 °F 57.0 °F 87% 30.00 in 10.0 mi WNW 8.1 mph 19.6 mph N/A   Scattered Clouds
8:53 PM 60.1 °F 57.0 °F 90% 30.01 in 10.0 mi WNW 13.8 mph 20.7 mph N/A   Mostly Cloudy
9:53 PM 60.1 °F 55.9 °F 86% 30.02 in 10.0 mi WNW 13.8 mph 20.7 mph N/A   Overcast
10:19 PM 59.0 °F 55.9 °F 90% 30.03 in 10.0 mi WNW 9.2 mph - N/A   Scattered Clouds
10:53 PM 59.0 °F 55.9 °F 90% 30.04 in 10.0 mi WNW 10.4 mph - N/A   Clear
11:19 PM 57.9 °F 55.9 °F 93% 30.05 in 10.0 mi NNW 6.9 mph - N/A   Partly Cloudy
11:53 PM 57.9 °F 55.0 °F 90% 30.06 in 10.0 mi WNW 6.9 mph - N/A   Partly Cloudy